Location: Degersen
(52.2871°N, 9.5716°E)
Time: 10:13:29
(UTC+00:00)

Lacrosse 4 Rocket - Pass Details

Date: 20 January 2026
Orbit: 512 x 564 km, 68.0° (Epoch: 19 February)

Event Time Altitude Azimuth Distance (km) Brightness Sun altitude
Exits shadow 06:21:14 - 256° (WSW) 2,045 3.7 -8.7°
Reaches altitude 10° 06:22:04 10° 261° (W) 1,752 3.4 -8.6°
Maximum altitude 06:25:25 27° 320° (NW) 1,030 2.2 -8.1°
Drops below altitude 10° 06:28:46 10° 20° (NNE) 1,749 3.9 -7.6°
Sets 06:31:11 0° 33° (NNE) 2,638 4.9 -7.3°
